Starlink 5129

operational
NORAD ID: 54004 Int'l Des: 2022-125 Owner: SPXS Country: US Constellation: starlink
LEOCIRCULAR

Über Starlink 5129

Beschreibung wird geladen...

Live-Position

3D-Globus wird geladen...

Nächste Überflüge

Höhenverlauf

Altitude vs Time

uPlot chart will show altitude changes over time

Zweizeiliger Elementsatz

1 54004U 22125AS 25260.05203979 -.00000498 00000-0 -13215-4 0 9994
2 54004 53.2161 273.2904 0001160 89.6013 270.5112 15.08838981163251
Epoch: 17. Sept. 2025 • Age: 37 hours

Aktueller Status

Höhe 541.8 km
Geschwindigkeit 7.60 km/s
Subsatellitenpunkt 35.43°N, 159.42°W
Startdatum 5. Okt. 2022
Alter 2.9 years
Typ internet

Technische Details

Klassifizierung Payload
Masse 305.00 kg
Trockenmasse 290.00 kg
Gesamtmasse 305.00 kg
Länge 0.20 m
Durchmesser 2.80 m
Spannweite 9.00 m
Form Box + pan
Hersteller SPXS
Bus-Typ Starlink
Phasenstatus In Orbit
Besitzer/Staat SPXS/US

Große Konstellationen

Loading constellations...